Карточка аэропорта USRR

Внимание!
Информация на этой странице в стадии наполнения.
Если вы не увидели какой-то информации, или заметили неточность - пожалуйста сообщите нам!
Спасибо!
Команда RU-STAFF
Название аэропортаСургут
Название аэропорта (англ.)Surgut
Превышение196 ft. (59.7 m.)
Координаты61°20.502', 73°24.168'
Высота перехода700m
Эшелон переходаQFE>=742mm:FL040; QFE<=742mm:FL050
Коды ответчика5570-5577
Зона ОрВДТюмень РПИ (USTV)
Данные METARUSRR 221030Z 36005MPS 310V020 9999 BKN045 04/M06 Q1013 R25/CLRD60 NOSIG RMK QFE754
Проноз погоды (TAF)USRR 220737Z 2209/2309 34006G14MPS 9999 BKN016 TEMPO 2209/2218 5000 -SHSNRA BKN011CB BECMG 2213/2215 02003G11MPS TEMPO 2218/2306 2100 -SHSN SCT005 BKN011CB BECMG 2301/2303 29005G14MPS
NOTAMshow/hide NOTAM
AWOS   TABLE

Информация о ВПП

ВПП Длина ВПП (м.) Покрытие Курс ВПП Частота ILS
072780Асфальтобетон73110.5
252780Асфальтобетон253109.1

Диспетчерские позиции

Позывной Наименование органа УВД Частота
USRR_R_APPСургут - Круг120.300
USRR_TWRСургут-Вышка120.800
USRR_APPСургут-Подход129.300



Спутниковое изображение